Barcelona, Spain

5:48 PM CET en Diciembre 18, 2018 (GMT +0100)
El Prat

Tiempo Historia de LEBL - Marzo, 2018

Change the Weather History Date:

Miércoles, Marzo 14, 2018

  Actual Average Record
Temperature  
Temperatura media 52 ° F -  
Temperatura máxima 59 ° F 60 ° F 71 ° F (2017)
Temperatura mínima 46 ° F 47 ° F 39 ° F (1998)
Degree Days  
Grados día de calefacción 12    
Growing Degree Days 2 (Base 50)    
Moisture  
Punto de rocío 47 ° F    
Average Humidity 79    
Maximum Humidity 94    
Minimum Humidity 55    
Precipitación  
Precipitación 0.00 pul 0.06 pul - ()
Presión al nivel del mar  
Presión al nivel del mar 29.83 pul    
Viento  
Velocidad del viento 7 mph ()    
Velocidad máxima del viento 15 mph    
Max Gust Speed 26 mph    
Visibilidad 8.3 Millas    
Eventos      
Averages and records for this station are not official NWS values.
T = Trace of Precipitation, MM = Missing Value Source: Averaged Metar Reports

Daily Weather History Graph

Daily Weather History Graph

Search for Another Location

Airport or City:

Astronomía

Mar. 14, 2018 Salida Puesta
Hora real 7:05 AM CET 6:57 PM CET
Crepúsculo civil 6:37 AM CET 7:24 PM CET
Crepúsculo náutico 6:05 AM CET 7:56 PM CET
Crepúsculo astronómico 5:33 AM CET 8:29 PM CET
Luna 5:34 AM CET (3/14) 3:58 PM CET (3/14)
Horas de luz 12h 46m
Horas de luz
11h 51m
Creciente menguante, 9% of the Moon is Illuminated
Mar 14
Creciente menguante
Mar 17
Nueva
Mar 24
Cuarto creciente
Mar 31
Luna llena
Abr 8
Cuarto menguante

Hourly Weather History & Observations

Hora (CET) Temp. Vientos helados Punto de rocío Humedad Presión Visibilidad Wind Dir Velocidad del viento Velocidad de ráfagas Precip Eventos Condiciones
12:00 AM 50 ° F - 43 ° F 70% 29.99 pul 16 mi Norte 4.6 mph - -  
12:00 AM 50.0 ° F - 42.8 ° F 76% 29.98 pul 6.2 mi NO 5.8 mph - N/A   Parcialmente nublado
12:30 AM 48.2 ° F - 42.8 ° F 82% 29.98 pul 6.2 mi ONO 5.8 mph - N/A   Parcialmente nublado
1:00 AM 49 ° F - 43 ° F 72% 29.99 pul 12 mi Norte 8.1 mph - -   Nubes dispersas
1:00 AM 48.2 ° F - 42.8 ° F 82% 29.98 pul 6.2 mi NO 8.1 mph - N/A   Parcialmente nublado
1:30 AM 50.0 ° F - 42.8 ° F 76% 29.98 pul 6.2 mi NNO 6.9 mph - N/A   Parcialmente nublado
2:00 AM 49 ° F - 43 ° F 71% 29.98 pul 11 mi Norte 8.1 mph - -  
2:00 AM 48.2 ° F - 41.0 ° F 76% 29.98 pul 6.2 mi NNO 9.2 mph - N/A   Parcialmente nublado
2:30 AM 48.2 ° F - 42.8 ° F 82% 29.98 pul - NO 9.2 mph - N/A   Despejado
3:00 AM 48.2 ° F - 41.0 ° F 76% 29.98 pul - NO 10.4 mph - N/A   Despejado
3:30 AM 48.2 ° F - 41.0 ° F 76% 29.95 pul - NO 6.9 mph - N/A   Despejado
4:00 AM 48 ° F - 42 ° F 72% 29.96 pul 19 mi Norte 5.8 mph - -   Nubes dispersas
4:00 AM 48.2 ° F - 41.0 ° F 76% 29.95 pul 6.2 mi NO 6.9 mph - N/A   Parcialmente nublado
4:30 AM 48.2 ° F - 41.0 ° F 76% 29.95 pul 6.2 mi NO 8.1 mph - N/A   Parcialmente nublado
5:00 AM 48.2 ° F - 41.0 ° F 76% 29.92 pul 6.2 mi NNO 10.4 mph - N/A   Parcialmente nublado
5:30 AM 46.4 ° F 41.5 ° F 41.0 ° F 81% 29.92 pul - NNO 10.4 mph - N/A   Despejado
6:00 AM 47 ° F - 41 ° F 73% 29.94 pul 17 mi Norte 6.9 mph - -  
6:00 AM 46.4 ° F 41.5 ° F 41.0 ° F 81% 29.92 pul - NO 10.4 mph - N/A   Despejado
6:30 AM 46.4 ° F 42.4 ° F 39.2 ° F 76% 29.92 pul - NO 8.1 mph - N/A   Despejado
7:00 AM 46.4 ° F 41.5 ° F 39.2 ° F 76% 29.92 pul 6.2 mi NNO 10.4 mph - N/A   Parcialmente nublado
7:30 AM 46.4 ° F 41.9 ° F 39.2 ° F 76% 29.92 pul 6.2 mi NO 9.2 mph - N/A   Parcialmente nublado
8:00 AM 47 ° F - 40 ° F 71% 29.94 pul 12 mi Norte 9.2 mph - -  
8:00 AM 46.4 ° F 41.9 ° F 39.2 ° F 76% 29.92 pul 6.2 mi NO 9.2 mph - N/A   Parcialmente nublado
8:30 AM 48.2 ° F - 41.0 ° F 76% 29.92 pul - NO 10.4 mph 26.5 mph N/A   Despejado
9:00 AM 51 ° F - 41 ° F 60% 29.94 pul 14 mi Norte 9.2 mph - -  
9:00 AM 50.0 ° F - 41.0 ° F 71% 29.92 pul - NO 9.2 mph 24.2 mph N/A   Despejado
9:30 AM 51.8 ° F - 41.0 ° F 67% 29.92 pul - NNO 9.2 mph - N/A   Despejado
10:00 AM 56 ° F - 44 ° F 55% 29.94 pul 16 mi Norte 5.8 mph - -   Nubes dispersas
10:00 AM 55.4 ° F - 42.8 ° F 63% 29.92 pul - NO 5.8 mph - N/A   Despejado
10:30 AM 57.2 ° F - 44.6 ° F 63% 29.92 pul - Oeste 4.6 mph - N/A   Despejado
11:00 AM 57.2 ° F - 44.6 ° F 63% 29.92 pul - SSO 6.9 mph - N/A   Despejado
11:30 AM 57.2 ° F - 46.4 ° F 67% 29.89 pul - SSO 8.1 mph - N/A   Despejado
12:00 PM 59 ° F - 49 ° F 60% 29.89 pul 15 mi SSO 6.9 mph - -  
12:00 PM 57.2 ° F - 48.2 ° F 72% 29.89 pul - SSO 8.1 mph - N/A   Despejado
12:30 PM 57.2 ° F - 48.2 ° F 72% 29.86 pul - Sur 8.1 mph - N/A   Despejado
1:00 PM 59 ° F - 53 ° F 73% 29.87 pul 12 mi SO 10.4 mph - -   Nublado
1:00 PM 57.2 ° F - 51.8 ° F 82% 29.86 pul 6.2 mi Sur 9.2 mph - N/A   Parcialmente nublado
1:30 PM 57.2 ° F - 53.6 ° F 88% 29.83 pul 6.2 mi SSO 12.7 mph - N/A   Parcialmente nublado
2:00 PM 59.0 ° F - 53.6 ° F 82% 29.83 pul 6.2 mi SSO 15.0 mph - N/A   Parcialmente nublado
2:30 PM 59.0 ° F - 53.6 ° F 82% 29.80 pul 6.2 mi SSO 12.7 mph - N/A   Parcialmente nublado
3:00 PM 59 ° F - 53 ° F 76% 29.79 pul 14 mi SO 10.4 mph - -  
3:00 PM 57.2 ° F - 51.8 ° F 82% 29.77 pul 6.2 mi SSO 11.5 mph - N/A   Parcialmente nublado
3:30 PM 57.2 ° F - 53.6 ° F 88% 29.77 pul 6.2 mi SSO 10.4 mph - N/A   Nubes dispersas
4:00 PM 58 ° F - 53 ° F 78% 29.77 pul 9 mi SO 8.1 mph - -   Nublado
4:00 PM 57.2 ° F - 51.8 ° F 82% 29.74 pul 6.2 mi SSO 9.2 mph - N/A   Muy nublado
4:30 PM 57.2 ° F - 53.6 ° F 88% 29.74 pul 6.2 mi SO 8.1 mph - N/A   Muy nublado
5:00 PM 58 ° F - 53 ° F 80% 29.75 pul 9 mi SO 8.1 mph - -  
5:00 PM 57.2 ° F - 53.6 ° F 88% 29.74 pul 6.2 mi SO 6.9 mph - N/A   Muy nublado
5:30 PM 55.4 ° F - 53.6 ° F 94% 29.71 pul 6.2 mi SO 10.4 mph - N/A   Muy nublado
6:00 PM 57 ° F - 53 ° F 81% 29.73 pul 9 mi OSO 9.2 mph - -  
6:00 PM 55.4 ° F - 51.8 ° F 88% 29.71 pul 6.2 mi SO 10.4 mph - N/A   Parcialmente nublado
7:00 PM 55.4 ° F - 51.8 ° F 88% 29.71 pul 6.2 mi Sur 6.9 mph - N/A   Parcialmente nublado
7:30 PM 55.4 ° F - 51.8 ° F 88% 29.68 pul 6.2 mi Sur 4.6 mph - N/A   Parcialmente nublado
8:00 PM 56 ° F - 53 ° F 86% 29.70 pul 7 mi Sur 4.6 mph - -  
8:00 PM 55.4 ° F - 53.6 ° F 94% 29.68 pul 6.2 mi SSE 3.5 mph - N/A   Parcialmente nublado
8:30 PM 55.4 ° F - 53.6 ° F 94% 29.68 pul 6.2 mi Variable 2.3 mph - N/A   Muy nublado
8:40 PM 55.4 ° F - 53.6 ° F 94% 29.68 pul 6.2 mi SE 3.5 mph - N/A   Muy nublado
9:00 PM 56 ° F - 53 ° F 86% 29.68 pul 11 mi Sur 1.2 mph - -  
9:00 PM 55.4 ° F - 51.8 ° F 88% 29.68 pul 6.2 mi Variable 2.3 mph - N/A   Nubes dispersas
9:30 PM 55.4 ° F - 53.6 ° F 94% 29.65 pul 6.2 mi Variable 2.3 mph - N/A   Nubes dispersas
10:00 PM 57 ° F - 53 ° F 84% 29.67 pul 9 mi SE 2.3 mph - -   Muy nublado
10:00 PM 55.4 ° F - 53.6 ° F 94% 29.65 pul 6.2 mi Variable 2.3 mph - N/A   Muy nublado
10:30 PM 55.4 ° F - 53.6 ° F 94% 29.62 pul 6.2 mi Este 2.3 mph - N/A   Llovizna débil
11:00 PM 57 ° F - 54 ° F 86% 29.63 pul 8 mi Este 4.6 mph - -   Despejado
11:00 PM 55.4 ° F - 53.6 ° F 94% 29.62 pul 6.2 mi Variable 2.3 mph - N/A   Muy nublado
11:30 PM 55.4 ° F - 53.6 ° F 94% 29.59 pul 6.2 mi ENE 4.6 mph - N/A   Muy nublado
11:45 PM 57.2 ° F - 53.6 ° F 88% 29.59 pul 5.6 mi Variable 2.3 mph - N/A   Muy nublado